Location: Casalecchio di Reno
(44.4760°N, 11.2757°E)
Time: 20:29:34
(UTC+02:00)

QB50P2 - Pass Details

Date: 24 June 2024
Orbit: 561 x 578 km, 98.0° (Epoch: 18 July)

Event Time Altitude Azimuth Distance (km) Brightness Sun altitude
Rises 03:59:42 0° 14° (NNE) 2,767 ? -12.7°
Reaches altitude 10° 04:01:51 10° 15° (NNE) 1,864 ? -12.4°
Maximum altitude 04:05:53 80° 102° (ESE) 576 ? -12.0°
Enters shadow 04:09:23 13° 190° (S) 1,640 ? -11.6°
